Location: Châteauvieux
(47.2310°N, 1.3828°E)
Time: 23:36:13
(UTC+00:00)

Cosmos 2227 Rocket - Pass Details

Date: 15 May 2026
Orbit: 838 x 844 km, 71.0° (Epoch: 11 June)

Event Time Altitude Azimuth Distance (km) Brightness Sun altitude
Exits shadow 22:56:01 15° 98° (E) 2,117 4.1 -22.6°
Maximum altitude 22:56:04 15° 97° (E) 2,117 4.1 -22.6°
Drops below altitude 10° 22:59:10 10° 64° (ENE) 2,470 4.8 -22.7°
Sets 23:02:39 0° 42° (NE) 3,411 5.8 -22.8°
